Tampa, FL

5:47 PM EDT on June 25, 2017 (GMT -0400)
Tampa International

Weather History for KTPA - May, 2014

Change the Weather History Date:

Sunday, May 11, 2014

  Actual Average Record
Temperature  
Mean Temperature 82 °F 78 °F  
Max Temperature 88 °F 87 °F 94 °F (2002)
Min Temperature 76 °F 69 °F 50 °F (1969)
Degree Days  
Heating Degree Days 0 0  
Month to date heating degree days 0 0  
Since 1 July heating degree days 444 538  
Cooling Degree Days 17 13  
Month to date cooling degree days 135 126  
Year to date cooling degree days 552 586  
Growing Degree Days 32 (Base 50)    
Moisture  
Dew Point 69 °F    
Average Humidity 64    
Maximum Humidity 82    
Minimum Humidity 46    
Precipitation  
Precipitation 0.00 in 0.05 in 1.40 in (1958)
Month to date precipitation 3.49 0.58  
Year to date precipitation 14.28 10.68  
Sea Level Pressure  
Sea Level Pressure 30.10 in    
Wind  
Wind Speed 7 mph (SSE)    
Max Wind Speed 13 mph    
Max Gust Speed 19 mph    
Visibility 10 miles    
Events      
T = Trace of Precipitation, MM = Missing Value Source: NWS Daily Summary

Daily Weather History Graph

Daily Weather History Graph

Search for Another Location

Airport or City:

Trip Planner

Search our weather history database for the weather conditions in past years. The results will help you decide how hot, cold, wet, or windy it might be!

Date:

Astronomy

May. 11, 2014 Rise Set
Actual Time 6:42 AM EDT 8:10 PM EDT
Civil Twilight 6:17 AM EDT 8:35 PM EDT
Nautical Twilight 5:47 AM EDT 9:06 PM EDT
Astronomical Twilight 5:15 AM EDT 9:37 PM EDT
Moon 5:20 PM EDT (5/11) 4:29 AM EDT (5/11)
Length of Visible Light 14h 18m
Length of Day
13h 27m
Waxing Gibbous, 89% of the Moon is Illuminated
May 11
Waxing Gibbous
May 14
Full
May 21
Last Quarter
May 28
New
Jun 5
First Quarter

Hourly Weather History & Observations

Time (EDT) Temp. Heat Index Dew Point Humidity Pressure Visibility Wind Dir Wind Speed Gust Speed Precip Events Conditions
12:53 AM 79.0 °F - 68.0 °F 69% 30.09 in 10.0 mi ESE 4.6 mph - N/A   Overcast
1:53 AM 79.0 °F - 68.0 °F 69% 30.09 in 10.0 mi Variable 4.6 mph - N/A   Overcast
2:53 AM 78.1 °F - 69.1 °F 74% 30.07 in 10.0 mi ESE 9.2 mph 17.3 mph N/A   Overcast
3:53 AM 77.0 °F - 70.0 °F 79% 30.07 in 10.0 mi SE 5.8 mph - N/A   Overcast
4:53 AM 75.9 °F - 70.0 °F 82% 30.08 in 10.0 mi Variable 4.6 mph - N/A   Overcast
5:53 AM 75.9 °F - 70.0 °F 82% 30.09 in 10.0 mi SE 5.8 mph - N/A   Overcast
6:53 AM 75.9 °F - 70.0 °F 82% 30.12 in 10.0 mi Variable 6.9 mph - N/A   Overcast
7:53 AM 75.9 °F - 70.0 °F 82% 30.13 in 10.0 mi Variable 3.5 mph - N/A   Overcast
8:53 AM 77.0 °F - 70.0 °F 79% 30.15 in 10.0 mi SE 4.6 mph - N/A   Overcast
9:53 AM 79.0 °F - 70.0 °F 74% 30.15 in 10.0 mi Variable 6.9 mph - N/A   Overcast
10:53 AM 81.0 °F 84.4 °F 70.0 °F 69% 30.16 in 10.0 mi SE 8.1 mph - N/A   Overcast
11:53 AM 82.9 °F 86.5 °F 69.1 °F 63% 30.15 in 10.0 mi ESE 8.1 mph - N/A   Overcast
12:53 PM 84.9 °F 88.8 °F 69.1 °F 59% 30.13 in 10.0 mi South 9.2 mph - N/A   Overcast
1:53 PM 84.0 °F 88.4 °F 70.0 °F 63% 30.12 in 10.0 mi WSW 10.4 mph - N/A   Mostly Cloudy
2:53 PM 86.0 °F 90.1 °F 69.1 °F 57% 30.09 in 10.0 mi WSW 8.1 mph - N/A   Mostly Cloudy
3:53 PM 84.9 °F 88.8 °F 69.1 °F 59% 30.06 in 10.0 mi WSW 9.2 mph - N/A   Mostly Cloudy
4:53 PM 84.9 °F 88.8 °F 69.1 °F 59% 30.04 in 10.0 mi SW 9.2 mph - N/A   Scattered Clouds
5:53 PM 88.0 °F 89.6 °F 64.9 °F 46% 30.04 in 10.0 mi SSE 6.9 mph - N/A   Scattered Clouds
6:53 PM 87.1 °F 88.9 °F 64.9 °F 48% 30.04 in 10.0 mi SE 5.8 mph - N/A   Scattered Clouds
7:53 PM 82.9 °F 87.5 °F 71.1 °F 67% 30.06 in 10.0 mi NNW 9.2 mph - N/A   Mostly Cloudy
8:53 PM 81.0 °F 84.4 °F 70.0 °F 69% 30.08 in 10.0 mi North 9.2 mph - N/A   Mostly Cloudy
9:53 PM 80.1 °F 82.9 °F 69.1 °F 69% 30.09 in 10.0 mi North 6.9 mph - N/A   Mostly Cloudy
10:53 PM 81.0 °F 83.0 °F 66.0 °F 60% 30.12 in 10.0 mi Variable 6.9 mph - N/A   Mostly Cloudy
11:53 PM 79.0 °F - 66.0 °F 64% 30.12 in 10.0 mi ESE 6.9 mph - N/A   Overcast